Regional Weather Roundup
Issued by NWS

Home | Current Version | Previous Version | Text Only | Print | Product List | Glossary On
Versions: 1 2 3 4 5 6 7 8 9 10 11 12 13 14 15 16 17 18 19 20 21 22 23 24 25 26 27 28 29 30 31 32 33 34 35 36 37 38 39 40 41 42 43 44 45 46 47 48 49 50
000
ASUS43 KDMX 251801
RWRIA

WEATHER ROUNDUP FOR IOWA
NATIONAL WEATHER SERVICE DES MOINES IA
100 PM CDT MON SEP 25 2017

NOTE: "FAIR" INDICATES FEW OR NO CLOUDS BELOW 12,000 FEET WITH NO
SIGNIFICANT WEATHER AND/OR OBSTRUCTIONS TO VISIBILITY.

* - THESE STATIONS ARE NOT NWS STATIONS...THUS NOT UNDER NWS
QUALITY CONTROL.  THEY ALSO DO NOT REPORT WEATHER SUCH
AS PRECIPITATION OR FOG.

IAZ001>003-012>014-020>022-031>034-043>046-251900-
   NORTHWEST IOWA

CITY           SKY/WX    TMP DP  RH WIND       PRES   REMARKS
CARROLL *      CLOUDY    70  70 100 NE6       29.94F
CHEROKEE *     LGT RAIN  57  57 100 N7        30.00S
DENISON *      HVY RAIN  66  66 100 VRB6      29.99R VSB 1/2
LE MARS *      RAIN      55  55 100 N10       30.01R
ORANGE CITY *  RAIN      55  55 100 NE9       30.00F
SHELDON *      CLOUDY    55  54  94 N12       30.01S FOG
SIOUX CITY     LGT RAIN  58  57  97 N10       29.98F
6HR MIN TEMP:  56; 6HR MAX TEMP:  58; 6HR PCP:  0.34;

SPENCER        LGT RAIN  57  55  93 N8        30.00F
6HR MIN TEMP:  55; 6HR MAX TEMP:  58; 6HR PCP:  0.28;

STORM LAKE *   PTSUNNY   59  57  94 N9        29.98S
$$

IAZ055>058-069>071-079>083-090>094-251900-
   SOUTHWEST IOWA

CITY           SKY/WX    TMP DP  RH WIND       PRES   REMARKS
ATLANTIC *     DRIZZLE   75  68  78 N5        29.92S
AUDUBON *      MOSUNNY   73  68  83 NE7       29.94F
CLARINDA *     PTSUNNY   84  66  54 S9G16     29.91F HX  86
COUNCIL BLFS * CLOUDY    68  68 100 NE9       29.93F
CRESTON *      CLOUDY    79  70  73 CALM      29.92F HX  81
HARLAN  *      RAIN      66  66 100 NW12      29.99R
LAMONI         SUNNY     86  67  52 S9        29.92F HX  89
6HR MIN TEMP:  66; 6HR MAX TEMP:  86;

RED OAK *      CLOUDY    73  70  88 NW8       29.92S
SHENANDOAH *   PTSUNNY   73  70  88 VRB5      29.92F
$$

IAZ047>049-059>061-072>074-084-251900-
   CENTRAL IOWA

CITY           SKY/WX    TMP DP  RH WIND       PRES   REMARKS
AMES           SUNNY     83  68  60 VRB3      29.92F HX  86
6HR MIN TEMP:  61; 6HR MAX TEMP:  84;

ANKENY *       SUNNY     84  68  58 CALM      29.92F HX  87
BOONE *        SUNNY     79  66  65 VRB5      29.92F HX  81
CHARITON *     SUNNY     86  68  54 SE7       29.92F HX  89
DES MOINES     MOSUNNY   84  67  56 CALM      29.90F HX  86
6HR MIN TEMP:  67; 6HR MAX TEMP:  86;

GRINNELL*      SUNNY     85  65  51 S5        29.94F HX  87
KNOXVILLE *    SUNNY     86  64  48 S8        29.91F HAZE    HX  87
MARSHALLTOWN   MOSUNNY   85  67  54 S9        29.92F HX  87
6HR MIN TEMP:  63; 6HR MAX TEMP:  86;

NEWTON *       SUNNY     86  66  51 VRB7      29.92F HX  88
PELLA *        SUNNY     87  64  45 SW3       29.93F HX  88
PERRY *          N/A     79  68  69 E5        29.92F HX  82
$$

IAZ004>006-015-016-023>025-035-036-251900-
   NORTH CENTRAL IOWA

CITY           SKY/WX    TMP DP  RH WIND       PRES   REMARKS
ALGONA *       CLOUDY    59  59 100 N8        29.99S
CLARION *      MOSUNNY   75  68  78 VRB5      29.94F
ESTHERVILLE    CLOUDY    57  56  96 N12       30.00S
6HR MIN TEMP:  53; 6HR MAX TEMP:  57; 6HR PCP:  0.19;

FORT DODGE *   CLOUDY    72  66  81 NW6       29.96F
MASON CITY     CLOUDY    71  65  81 CALM      29.97F
6HR MIN TEMP:  63; 6HR MAX TEMP:  72; 6HR PCP: TRACE;

FOREST CITY *  PTSUNNY   73  66  78 CALM      29.96F
WEBSTER CITY * SUNNY     75  66  73 VRB5      29.92F
IOWA FALLS *     N/A     81  66  61 CALM      29.95F HX  83
$$

IAZ007>011-017>019-026>030-037>042-050>054-066-251900-
   NORTHEAST IOWA

CITY           SKY/WX    TMP DP  RH WIND       PRES   REMARKS
CEDAR RAPIDS   MOSUNNY   89  64  43 S8        29.93  HX  90
6HR MIN TEMP:  63; 6HR MAX TEMP:  91;

CHARLES CITY * CLOUDY    73  70  88 SW7       29.95F
CLINTON *      SUNNY    N/A N/A N/A SE10      29.95F
DECORAH *      RAIN      72  68  88 VRB7G18   29.95R
DUBUQUE        SUNNY     85  65  51 SE10      29.96F HX  86
6HR MIN TEMP:  64; 6HR MAX TEMP:  85;

MONTICELLO *   SUNNY     90  64  43 VRB6G14   29.93F HX  91
OELWEIN *      PTSUNNY   82  64  54 SW10      29.93F HX  84
WATERLOO       MOSUNNY   84  64  50 SW5       29.91F HX  85
6HR MIN TEMP:  62; 6HR MAX TEMP:  85;

$$

IAZ064-065-067-068-078-251900-
   EAST CENTRAL IOWA

CITY           SKY/WX    TMP DP  RH WIND       PRES   REMARKS
DAVENPORT      SUNNY     86  67  52 S7        29.97F HX  89
6HR MIN TEMP:  63; 6HR MAX TEMP:  86;

IOWA CITY      MOSUNNY   88  65  46 S8        29.94F HX  90
6HR MIN TEMP:  64; 6HR MAX TEMP:  89;

MUSCATINE *    SUNNY     88  64  45 SE12      29.94F HX  89
QUAD CITIES    SUNNY     89  66  46 SW9       29.94F HX  91
6HR MIN TEMP:  63; 6HR MAX TEMP:  89;

$$

IAZ062-063-075>077-085>089-095>099-251900-
   SOUTHEAST IOWA

CITY           SKY/WX    TMP DP  RH WIND       PRES   REMARKS
BURLINGTON     SUNNY     87  67  51 S10       29.95F HX  90
6HR MIN TEMP:  66; 6HR MAX TEMP:  87;

FAIRFIELD *    SUNNY     86  64  48 S10       29.94S HX  87
FORT MADISON * SUNNY     90  64  43 S6        29.96F HX  91
KEOKUK *       SUNNY     90  63  40 S10       29.94F HX  90
OSKALOOSA *      N/A     88  64  43 SE9       29.93F HX  89
OTTUMWA        SUNNY     85  68  56 S9        29.93F HX  88
6HR MIN TEMP:  68; 6HR MAX TEMP:  85;

WASHINGTON *   MOSUNNY   88  63  42 SW7G14    29.95F HX  88
$$

ABBREVIATIONS USED IN REMARKS
   TC - TEMPERATURES IN CELSIUS
  WCI - WIND CHILL INDEX
   HX - HEAT INDEX
  VSB - VISIBILITY
$$





USA.gov is the U.S. government's official web portal to all federal, state and local government web resources and services.